sat.trackr.live / text

‹ back to catalog

WFOV (USA 332)

NORAD 52940 · 2022-073A

PAYLOAD ACTIVE UNKNOWN

§ Identity

Operator
Country
US
Launch date
2022-07-01
Launch site
AFETR
Launch vehicle
Mass (kg)
RCS (m²)

Purposes: comms

External: N2YO · Heavens-Above · Gunter

§ Orbital elements

Epoch: 2026-05-24T21:27:55.924128Z

Period
1,436.09 min
Inclination
3.6537°
Eccentricity
0.0002413
Mean motion
1.00272547 rev/d
Perigee alt
35,776.2 km
Apogee alt
35,796.6 km
Semi-major
42,164.5 km
B*
0.0000e+0
RAAN
78.8191°
Arg perigee
243.6678°
Mean anomaly
1.2099°
Rev number
1,413

§ Raw data

WFOV (USA 332)1 52940U 22073A   26144.89439727 -.00000364  00000+0  00000+0 0  99922 52940   3.6537  78.8191 0002413 243.6678   1.2099  1.00272547 14134

JSON: /api/v1/satellites/52940 · /tle

For live sub-satellite position, see the globe view (requires WebGL).

§ Visibility from observer

Set your observer location to see the next 7 days of passes ≥ 10°. The values pass through the URL so the page stays shareable.

No JS? Fill the form by hand. The geolocation button needs JavaScript.